CNDF Weather Reports


Display with metric or nautical units.
time (UTC)temp
F
wind
direction
speed
MPH
gust
MPH
rain 1hr
in
rain 24hr
in
rain mn
in
humidity
%
barometer
mb
20210123074626 17 16 0.0 10.0 0.00 0.00 0.00 83 1004.9
20210123073044 17 32 1.0 5.0 0.00 0.00 0.00 83 1004.9
20210123071523 17 39 0.0 4.0 0.00 0.00 0.00 83 1004.8
20210123064521 18 36 1.0 7.0 0.00 0.00 0.00 85 1004.7
20210123063010 17 30 1.0 4.0 0.00 0.00 0.00 87 1004.5
20210123061656 17 20 0.0 1.0 0.00 0.00 0.00 88 1004.5
20210123054627 18 26 0.0 1.0 0.00 0.00 0.00 90 1004.3
20210123053159 18 41 0.0 1.0 0.00 0.00 0.00 91 1004.2
20210123051648 18 32 0.0 2.0 0.00 0.00 0.00 92 1004.1
20210123044801 18 32 0.0 1.0 0.00 0.00 0.00 92 1004.2
20210123043110 17 132 0.0 1.0 0.00 0.00 0.00 92 1004.1
20210123041717 17 142 0.0 0.0 0.00 0.00 0.00 91 1004.0
20210123034641 18 143 0.0 1.0 0.00 0.00 0.00 91 1004.1
20210123033203 18 107 0.0 1.0 0.00 0.00 0.00 92 1004.1
20210123031733 19 28 0.0 1.0 0.00 0.00 0.00 92 1004.0
20210123024739 18 46 0.0 1.0 0.00 0.00 0.00 92 1004.0
20210123023127 18 139 0.0 1.0 0.00 0.00 0.00 92 1003.9
20210123021615 18 142 0.0 1.0 0.00 0.00 0.00 92 1003.9
20210123014836 18 132 0.0 1.0 0.00 0.00 0.00 92 1003.7
20210123013100 18 147 0.0 1.0 0.00 0.00 0.00 91 1003.7
20210123011551 18 208 0.0 1.0 0.00 0.00 0.00 91 1003.6
20210123004627 18 96 0.0 1.0 0.00 0.00 0.00 91 1003.5
20210123003113 19 88 0.0 1.0 0.00 0.00 0.00 91 1003.4
20210123001608 19 93 0.0 1.0 0.00 0.00 0.00 91 1003.4
20210122234608 20 84 0.0 1.0 0.00 0.00 0.00 92 1003.2
20210122233040 20 84 0.0 1.0 0.00 0.00 0.00 92 1003.0
20210122231537 20 99 0.0 1.0 0.00 0.00 0.00 91 1003.0
20210122223049 20 128 0.0 1.0 0.00 0.00 0.00 91 1002.5
20210122221615 20 154 0.0 1.0 0.00 0.00 0.00 90 1002.3
20210122214554 21 172 0.0 1.0 0.00 0.00 0.00 89 1001.9
20210122213058 20 178 0.0 0.0 0.00 0.00 0.00 88 1001.8
20210122211602 20 191 0.0 1.0 0.00 0.00 0.00 88 1001.5
20210122204548 21 176 0.0 2.0 0.00 0.00 0.00 88 1001.0
20210122203026 21 167 0.0 1.0 0.00 0.00 0.00 88 1000.8
20210122201607 21 190 0.0 0.0 0.00 0.00 0.00 87 1000.6
20210122194558 21 182 0.0 1.0 0.00 0.00 0.00 87 1000.2
20210122193030 21 153 0.0 1.0 0.00 0.00 0.00 87 1000.1
20210122191518 21 188 0.0 3.0 0.00 0.00 0.00 86 999.9
20210122184519 20 207 0.0 1.0 0.00 0.00 0.00 86 999.6
20210122183024 20 182 0.0 1.0 0.00 0.00 0.00 86 999.3
20210122181520 20 198 0.0 8.0 0.00 0.00 0.00 85 999.1
20210122173140 20 184 0.0 6.0 0.00 0.00 0.00 86 998.5
20210122171818 20 197 0.0 4.0 0.00 0.00 0.00 84 998.6
20210122170310 20 190 0.0 4.0 0.00 0.00 0.00 85 998.7
20210122164648 21 190 0.0 3.0 0.00 0.00 0.00 84 998.6
20210122163149 20 186 1.0 5.0 0.00 0.00 0.00 84 998.6
20210122161759 20 190 0.0 4.0 0.00 0.00 0.00 85 998.6
20210122160135 20 165 0.0 8.0 0.00 0.00 0.00 85 998.8
20210122154640 20 194 0.0 4.0 0.00 0.00 0.00 85 998.7
20210122153157 20 140 0.0 5.0 0.00 0.00 0.00 85 998.8
20210122151720 20 177 0.0 7.0 0.00 0.00 0.00 86 998.7
20210122150126 20 185 1.0 8.0 0.00 0.00 0.00 86 998.5
20210122144706 19 201 0.0 3.0 0.00 0.00 0.00 86 998.5
20210122143311 19 205 0.0 5.0 0.00 0.00 0.00 86 998.4
20210122141616 19 173 0.0 3.0 0.00 0.00 0.00 87 998.4
20210122140109 19 169 0.0 3.0 0.00 0.00 0.00 88 998.1
20210122134618 18 199 0.0 2.0 0.00 0.00 0.00 88 998.0
20210122133045 18 188 0.0 4.0 0.00 0.00 0.00 87 997.6
20210122131553 18 167 0.0 6.0 0.00 0.00 0.00 88 997.4
20210122130117 0 0.0 0.0 0.00 0.00 0.00 997.4
20210122124554 0 0.0 0.0 0.00 0.00 0.00 997.3
20210122123039 0 0.0 0.0 0.00 0.00 0.00 997.1
20210122121617 0 0.0 0.0 0.00 0.00 0.00 997.0
20210122120032 0 0.0 0.0 0.00 0.00 0.00 996.8
20210122114536 0 0.0 0.0 0.00 0.00 0.00 996.7
20210122113045 0 0.0 0.0 0.00 0.00 0.00 996.5
20210122111525 0 0.0 0.0 0.00 0.00 0.00 996.5
20210122110022 17 146 0.0 9.0 0.00 0.00 0.00 88 996.6
20210122104759 17 202 0.0 4.0 0.00 0.00 0.00 89 996.5
20210122103116 17 202 0.0 4.0 0.00 0.00 0.00 89 996.6
20210122101701 17 183 0.0 4.0 0.00 0.00 0.00 88 996.4
20210122100228 17 174 0.0 4.0 0.00 0.00 0.00 88 996.2
20210122094648 17 196 0.0 9.0 0.00 0.00 0.00 87 996.2
20210122093126 17 178 1.0 10.0 0.00 0.00 0.00 87 996.1
20210122091626 17 167 1.0 8.0 0.00 0.00 0.00 88 996.1
20210122090231 17 159 0.0 7.0 0.00 0.00 0.00 88 996.1
20210122084707 17 203 0.0 10.0 0.00 0.00 0.00 88 996.0
20210122083220 17 163 0.0 1.0 0.00 0.00 0.00 89 996.2
20210122081739 17 167 0.0 8.0 0.00 0.00 0.00 90 996.0
20210122080137 17 161 1.0 7.0 0.00 0.00 0.00 90 995.9